Burlington, VT

6:02 PM EDT on August 20, 2017 (GMT -0400)
Burlington International

Weather History for KBTV - August, 2014

Change the Weather History Date:

Wednesday, August 20, 2014

  Actual Average Record
Temperature  
Mean Temperature 68 °F 68 °F  
Max Temperature 83 °F 79 °F 94 °F (1916)
Min Temperature 53 °F 58 °F 42 °F (1953)
Degree Days  
Heating Degree Days 0 1  
Month to date heating degree days 12 16  
Since 1 June heating degree days 33 102  
Since 1 July heating degree days 13 29  
Cooling Degree Days 3 4  
Month to date cooling degree days 90 104  
Year to date cooling degree days 440 407  
Since 1 June cooling degree days 418 388  
Growing Degree Days 18 (Base 50)    
Moisture  
Dew Point 56 °F    
Average Humidity 68    
Maximum Humidity 93    
Minimum Humidity 43    
Precipitation  
Precipitation 0.00 in 0.12 in 2.20 in (1890)
Month to date precipitation 1.76 2.67  
Year to date precipitation 25.41 22.83  
Snow  
Snow 0.00 in 0.00 in 0.00 in (2002)
Month to date snowfall 0.0 0.0  
Since 1 June snowfall 0.0 0.0  
Since 1 July snowfall 0.0 0.0  
Snow Depth 0.00 in    
Sea Level Pressure  
Sea Level Pressure 29.98 in    
Wind  
Wind Speed 5 mph (SE)    
Max Wind Speed 12 mph    
Max Gust Speed 16 mph    
Visibility 10 miles    
Events      
T = Trace of Precipitation, MM = Missing Value Source: NWS Daily Summary

Daily Weather History Graph

Daily Weather History Graph

Search for Another Location

Airport or City:

Trip Planner

Search our weather history database for the weather conditions in past years. The results will help you decide how hot, cold, wet, or windy it might be!

Date:

Astronomy

Aug. 20, 2014 Rise Set
Actual Time 6:01 AM EDT 7:49 PM EDT
Civil Twilight 5:30 AM EDT 8:20 PM EDT
Nautical Twilight 4:52 AM EDT 8:58 PM EDT
Astronomical Twilight 4:10 AM EDT 9:39 PM EDT
Moon 1:34 AM EDT 4:36 PM EDT
Length of Visible Light 14h 50m
Length of Day
13h 48m
Waning Crescent, 21% of the Moon is Illuminated
Aug 20
Waning Crescent
Aug 25
New
Sep 2
First Quarter
Sep 8
Full
Sep 15
Last Quarter

Hourly Weather History & Observations

Time (EDT) Temp. Heat Index Dew Point Humidity Pressure Visibility Wind Dir Wind Speed Gust Speed Precip Events Conditions
12:54 AM 57.0 °F - 54.0 °F 89% 29.96 in 10.0 mi NE 3.5 mph - N/A   Clear
1:54 AM 55.9 °F - 53.1 °F 90% 29.96 in 10.0 mi South 4.6 mph - N/A   Clear
2:54 AM 55.0 °F - 52.0 °F 89% 29.96 in 10.0 mi East 3.5 mph - N/A   Clear
3:54 AM 55.0 °F - 52.0 °F 89% 29.95 in 10.0 mi Calm Calm - N/A   Clear
4:54 AM 54.0 °F - 51.1 °F 90% 29.96 in 10.0 mi Calm Calm - N/A   Clear
5:54 AM 55.0 °F - 51.1 °F 86% 29.97 in 10.0 mi Calm Calm - N/A   Clear
6:54 AM 57.0 °F - 53.1 °F 87% 29.98 in 10.0 mi East 3.5 mph - N/A   Scattered Clouds
7:54 AM 62.1 °F - 55.0 °F 78% 29.99 in 10.0 mi SW 4.6 mph - N/A   Scattered Clouds
8:54 AM 66.0 °F - 55.0 °F 68% 29.99 in 10.0 mi Calm Calm - N/A   Scattered Clouds
9:54 AM 73.0 °F - 55.9 °F 55% 29.99 in 10.0 mi Calm Calm - N/A   Scattered Clouds
10:54 AM 75.9 °F - 55.9 °F 50% 29.99 in 10.0 mi South 5.8 mph - N/A   Mostly Cloudy
11:54 AM 79.0 °F - 57.0 °F 47% 29.99 in 10.0 mi SSW 10.4 mph - N/A   Mostly Cloudy
1:54 PM 82.0 °F 82.0 °F 57.9 °F 44% 29.97 in 10.0 mi SSW 9.2 mph - N/A   Mostly Cloudy
2:54 PM 80.1 °F 81.1 °F 61.0 °F 52% 29.97 in 10.0 mi SSW 9.2 mph - N/A   Scattered Clouds
3:54 PM 82.9 °F 83.3 °F 61.0 °F 47% 29.96 in 10.0 mi SSE 6.9 mph - N/A   Scattered Clouds
4:54 PM 82.9 °F 83.2 °F 60.1 °F 46% 29.96 in 10.0 mi East 8.1 mph - N/A   Scattered Clouds
5:54 PM 82.0 °F 82.0 °F 57.9 °F 44% 29.97 in 10.0 mi SE 9.2 mph - N/A   Mostly Cloudy
6:54 PM 79.0 °F - 57.9 °F 48% 29.96 in 10.0 mi ESE 6.9 mph - N/A   Mostly Cloudy
7:54 PM 75.0 °F - 59.0 °F 57% 29.98 in 10.0 mi ESE 5.8 mph - N/A   Mostly Cloudy
8:54 PM 73.0 °F - 59.0 °F 61% 29.99 in 10.0 mi SE 4.6 mph - N/A   Clear
9:54 PM 73.0 °F - 59.0 °F 61% 29.99 in 10.0 mi ESE 5.8 mph - N/A   Mostly Cloudy
10:54 PM 73.0 °F - 59.0 °F 61% 30.00 in 10.0 mi ESE 5.8 mph - N/A   Mostly Cloudy
11:54 PM 72.0 °F - 57.9 °F 61% 29.99 in 10.0 mi ESE 4.6 mph - N/A   Clear